OpenBCM V1.08-5-g2f4a (Linux)

Packet Radio Mailbox

IZ3LSV

[San Dona' di P. JN]

 Login: GUEST





  
I0OJJ  > KEPS     29.06.25 02:44l 341 Lines 16337 Bytes #99 (0) @ AMSAT
BID : ORB25180.1
Read: GUEST
Subj: 2Line Orbital Elements 25180.AMSAT
Path: IZ3LSV<IK6IHL<IK7NXU<HB9ON<DK0WUE<PD0LPM<PI8LAP<VE2PKT<VE3CGR<VK2RZ<
      IR0AAB<I0OJJ
Sent: 250629/0025z @:I0OJJ.ITA.EU [Rome] obcm1.08-10-g596e
From: I0OJJ @ I0OJJ.ITA.EU (Gustavo)
To:   KEPS @ AMSAT
X-Info: This message was generated automatically


QST de W1STR

AMSAT Orbital Elements for Amateur Satellites in TLE Format
From Orbital Analysis Office
New England Sci-Tech STEM Education Center
Natick, MA June 29, 2025
To all radio amateurs


These element sets describe the orbits of various satellites 
in use by the amateur radio community. For details see:
www.amsat.org/keplerian-elements-formats/

A daily update of element sets is available at:
www.amsat.org/tle/daily-bulletin.txt
or without bulletin text:
www.amsat.org/tle/dailytle.txt


AO-07
1 07530U 74089B   25179.56927606 -.00000045  00000-0  64953-5 0  9990
2 07530 101.9927 184.0355 0012658  86.0373  26.1272 12.53689867316444
UO-11
1 14781U 84021B   25179.47919198  .00000750  00000-0  84616-4 0  9999
2 14781  97.7551 145.4752 0006256 275.8298  84.2206 14.89431681204457
AO-27
1 22825U 93061C   25179.44870439  .00000063  00000-0  41207-4 0  9998
2 22825  98.7359 241.0977 0009358  62.0730 298.1399 14.30804725656412
FO-29
1 24278U 96046B   25179.60521576 -.00000007  00000-0  31694-4 0  9999
2 24278  98.5735  70.9926 0348906 293.3980  63.0828 13.53249978425345
NOAA-15
1 25338U 98030A   25179.81337725  .00000151  00000-0  79770-4 0  9992
2 25338  98.5340 204.4808 0009179 307.3121  52.7223 14.26989073411142
GO-32
1 25397U 98043D   25179.51846686  .00000028  00000-0  32261-4 0  9996
2 25397  98.9711 159.0337 0002008 125.1227 235.0139 14.24318934400984
ISS
1 25544U 98067A   25179.67346309  .00005814  00000-0  10869-3 0  9997
2 25544  51.6347 250.1490 0002267 304.7962  55.2814 15.50286067516947
NO-44
1 26931U 01043C   25179.43705695  .00000089  00000-0  64576-4 0  9991
2 26931  67.0513  79.0849 0006144 276.7547  83.2855 14.31742332239808
SO-50
1 27607U 02058C   25179.58656031  .00000886  00000-0  12776-3 0  9993
2 27607  64.5517 141.8639 0058526 329.8896  29.8849 14.81668681212043
CO-55
1 27844U 03031E   25179.51064689  .00000196  00000-0  10442-3 0  9995
2 27844  98.6755 187.5395 0010596 127.8458 232.3681 14.24008533141338
CO-57
1 27848U 03031J   25179.53820312  .00000165  00000-0  91959-4 0  9993
2 27848  98.6781 187.5581 0010216 143.9805 216.2063 14.23341584141062
RS-22
1 27939U 03042A   25179.84755355  .00000628  00000-0  10754-3 0  9991
2 27939  98.3294 349.7658 0010424 313.5306 176.5051 14.72390387163662
CO-58
1 28895U 05043F   25179.35965747  .00000922  00000-0  15840-3 0  9998
2 28895  98.2520 323.9469 0013356 244.9841 114.9978 14.71062578 49706
CO-65
1 32785U 08021C   25179.56009362  .00002316  00000-0  16944-3 0  9990
2 32785  97.7854 150.8670 0010888 140.2374 219.9652 15.04570924931936
CO-66
1 32791U 08021J   25179.41325203  .00007790  00000-0  37474-3 0  9998
2 32791  97.7283 159.8794 0005839 100.9128 259.2763 15.19066214933351
RS-30
1 32953U 08025A   25179.87791509  .00000017  00000-0  51142-4 0  9992
2 32953  82.5015 215.1771 0019250   7.8216 352.3160 12.43165762775938
NOAA-19
1 33591U 09005A   25179.88389021  .00000141  00000-0  99442-4 0  9996
2 33591  98.9966 244.6962 0012846 312.1729  47.8351 14.13382534844838
SRMSAT
1 37841U 11058D   25179.60554362  .00000354  00000-0  48258-4 0  9996
2 37841  19.9735  39.4142 0011716 274.0735 104.2936 14.11440870707803
ZACUBE-1
1 39417U 13066B   25179.84000062  .00003460  00000-0  30163-3 0  9993
2 39417  97.7819 136.7533 0043716 350.5640   9.4755 14.96812578627791
Delfi-N3xt
1 39428U 13066N   25179.71966980  .00004246  00000-0  43369-3 0  9996
2 39428  97.8343  97.1589 0082920 298.2413  61.0451 14.88604674622107
GOMX-1
1 39430U 13066Q   25179.84836506  .00001301  00000-0  20746-3 0  9996
2 39430  97.6818  37.3287 0133462 130.3364 230.9591 14.67699325618230
LO-74
1 39440U 13066AA  25179.81715846  .00001953  00000-0  20080-3 0  9991
2 39440  97.8500 124.2456 0063383 115.8904 244.8866 14.90032220625505
AO-73
1 39444U 13066AE  25179.32792708  .00004141  00000-0  31066-3 0  9991
2 39444  97.7807 141.3171 0041278 325.0972  34.7547 15.02540685626406
DTUSAT-2
1 40030U 14033W   25179.86082981  .00004593  00000-0  29899-3 0  9995
2 40030  98.0564 152.6152 0009160   6.5170 353.6174 15.08469076599815
EO-80
1 40032U 14033Y   25179.48205761  .00004394  00000-0  28575-3 0  9997
2 40032  98.0439 151.8468 0007076 302.8513  57.2032 15.08544486599220
LILACSAT-2
1 40908U 15049K   25179.85393210  .00007900  00000-0  20454-3 0  9999
2 40908  97.5044 200.6691 0011085  92.9539 267.2975 15.39280808541190
IO-86
1 40931U 15052B   25151.18580175  .00001241  00000-0  78118-4 0  9996
2 40931   6.0006  24.0987 0012733 338.8432  21.1169 14.78805930523047
Horyu-4
1 41340U 16012D   25179.89101764  .00015394  00000-0  40089-3 0  9998
2 41340  30.9976   2.0006 0006254 267.1258  92.8672 15.37573108515762
Lapan A3
1 41603U 16040E   25179.79517077  .00002260  00000-0  80276-4 0  9999
2 41603  97.1366 183.6498 0010513 190.9708 169.1305 15.29968741500722
CAS-2T
1 41847U 16066G   25179.88321247  .00001268  00000-0  18724-3 0  9994
2 41847  98.4197 254.1768 0347071 120.0492 243.5604 14.43540161453800
CAS-4B
1 42759U 17034B   25179.55608326  .00050039  00000-0  48068-3 0  9997
2 42759  43.0044 208.5803 0019326  60.3914 299.8874 15.65568881445579
CAS-4A
1 42761U 17034D   25179.76422058  .00055464  00000-0  50174-3 0  9997
2 42761  43.0081 204.2714 0020384  66.7527 293.5483 15.66990030445633
TechnoSat
1 42829U 17042E   25179.70023586  .00001450  00000-0  11540-3 0  9998
2 42829  97.3856 347.4956 0015731 208.0674 151.9705 15.01781138433594
AO-91
1 43017U 17073E   25179.61063294  .00005563  00000-0  28311-3 0  9995
2 43017  97.5214  49.9014 0173525 101.7070 260.3684 15.04979365412073
S-Net D
1 43186U 18014G   25179.16261234  .00002927  00000-0  17430-3 0  9993
2 43186  97.5609  81.8803 0009763 151.5415 208.6350 15.11966443405187
S-Net B
1 43187U 18014H   25179.16825433  .00002767  00000-0  16506-3 0  9996
2 43187  97.5616  81.8584 0010598 147.6847 212.5035 15.11946435405188
S-Net A
1 43188U 18014J   25179.62620157  .00002981  00000-0  17734-3 0  9996
2 43188  97.5623  82.4645 0010496 146.9697 213.2191 15.11973959405254
S-Net C
1 43189U 18014K   25179.17070411  .00002715  00000-0  16197-3 0  9996
2 43189  97.5640  82.0310 0012175 142.6675 217.5404 15.11941926403738
Ten-Koh
1 43677U 18084G   25179.46644444  .00001256  00000-0  10442-3 0  9996
2 43677  98.0853 352.4697 0007089 186.9604 173.1522 15.00642498363075
PO-101
1 43678U 18084H   25179.82137071  .00001250  00000-0  11015-3 0  9991
2 43678  98.1028 356.6802 0008079 216.5978 143.4692 14.98391957363265
QO-100
1 43700U 18090A   25179.57421328  .00000138  00000-0  00000-0 0  9990
2 43700   0.0221  26.9866 0002097 107.9451  14.4950  1.00268543 24135
MinXSS-2
1 43758U 18099A   25179.73997435  .00010135  00000-0  39344-3 0  9991
2 43758  97.5008 245.8427 0013173  91.2885 268.9862 15.26209214359895
AO-95
1 43770U 18099N   25179.11341369  .00006791  00000-0  34151-3 0  9990
2 43770  97.4901 236.9963 0011807 142.3227 217.8836 15.17500518359363
RANGE-A
1 43773U 18099R   25179.69611152  .00002921  00000-0  18721-3 0  9992
2 43773  97.4464 227.5441 0012751 122.9925 237.2531 15.09227923359102
MOVE-II
1 43780U 18099Y   25179.18562976  .00414083  65271-4  14737-2 0  9996
2 43780  97.4620 256.4192 0006354 226.4528 133.6217 15.88878213360742
SNUSat 2
1 43782U 18099AA  25179.10337040  .00005746  00000-0  31195-3 0  9997
2 43782  97.4582 233.5864 0013596  91.3134 268.9655 15.14837854359304
SnugLite
1 43784U 18099AC  25179.66697149  .00005553  00000-0  27751-3 0  9998
2 43784  97.4394 233.7384 0005200  93.7524 266.4305 15.17848152359534
ITASat 1
1 43786U 18099AE  25179.72478557  .00003672  00000-0  21035-3 0  9996
2 43786  97.4547 233.6494 0015610 136.2480 223.9991 15.13124106359358
EAGLET 1
1 43790U 18099AJ  25179.58014629  .00002683  00000-0  17249-3 0  9994
2 43790  97.4746 233.4019 0013466 121.4794 238.7753 15.09181736358936
ESEO
1 43792U 18099AL  25179.71314540  .00000673  00000-0  54668-4 0  9990
2 43792  97.4472 226.5409 0015247  96.1278 264.1685 15.02677244358691
CSIM
1 43793U 18099AM  25179.73494715  .00098036  00000-0  54001-3 0  9996
2 43793  97.4774 259.1746 0004843 142.5043 217.6562 15.79401685360664
JO-97
1 43803U 18099AX  25179.13655358  .00007654  00000-0  34609-3 0  9992
2 43803  97.4648 238.0500 0009020  85.0581 275.1684 15.21176211359595
Suomi 100
1 43804U 18099AY  25179.70826965  .00006668  00000-0  32404-3 0  9995
2 43804  97.4711 237.8587 0013839  84.2049 276.0763 15.18684719359605
ISAT
1 43879U 18111D   25179.32788277  .00012662  00000-0  43145-3 0  9998
2 43879  97.5947  94.1419 0010487 124.6941 235.5289 15.30474297356560
UWE-4
1 43880U 18111E   25179.48925296  .00009276  00000-0  35908-3 0  9996
2 43880  97.5892  92.6522 0013268 137.2405 222.9867 15.26333324356511
Sparrow
1 43881U 18111F   25179.49049525  .00013027  00000-0  42692-3 0  9997
2 43881  97.6095  97.2600 0007661 154.7608 205.4008 15.31752980356685
Prox-1
1 44339U 19036A   25179.62953922  .00006242  00000-0  76779-3 0  9997
2 44339  23.9978 296.6360 0006848 294.8924  65.0861 14.80271441320934
SONATE
1 44400U 19038Q   25179.61903946  .00944042  56982-3  76317-3 0  9998
2 44400  97.6691 209.5403 0009078 201.1060 158.9852 16.14333856332623
Taurus 1
1 44530U 19059C   25179.83792027  .00003526  00000-0  65248-3 0  9996
2 44530  98.6095 320.1485 0008243 342.4818  17.6099 14.66022729306768
Duchifat 3
1 44854U 19089C   25179.53107000  .00029726  00000-0  55369-3 0  9999
2 44854  36.9411 234.5675 0003488 126.4240 233.6839 15.47951573305958
TO-108
1 44881U 19093C   25179.82299500  .00000547  00000-0  69220-4 0  9995
2 44881  97.7922 255.0705 0014234 162.8165 197.3535 14.85632370298933
